Tracking 29892 objects as of 21-Nov-2024
HD Live streaming from Space Station
objects crossing your sky now

SKYKRAFT-1

Track SKYKRAFT-1 now!
10-day predictions


NORAD ID: 55041
Int'l Code: 2023-001AJ
Perigee: 475.8 km
Apogee: 488.5 km
Inclination: 97.4 °
Period: 94.1 minutes
Semi major axis: 6853 km
RCS: Unknown
Launch date: January 3, 2023
Source: Australia (AUS)
Launch site: AIR FORCE EASTERN TEST RANGE (AFETR)
Your satellite tracking list
Your tracking list is empty




NASA's NSSDC Master Catalog

Two Line Element Set (TLE):
1 55041U 23001AJ  24326.12459754  .00018595  00000-0  63612-3 0  9994
2 55041  97.4036  24.2700 0009311 349.6005  10.5042 15.30262653104541
Source of the keplerian elements: AFSPC